INTELSAT 29E (IS-29E)

Last updated on Aug. 10, 2019, 3:46 a.m. UTC

1 41308U 16004A   19221.81646819 -.00000330  00000-0  00000+0 0  9991
2 41308   0.3083  98.2120 0022949 314.5447 292.8956  1.00609989 13050
UTC
Height (km)
Latitude
Longitude
Inclination
Orbital Period
UTC large
Height (km)
Speed (km/s)
/
Latitude / Longitude
Inclination (degrees)
Orbital Period (minutes)
Azimuth
Elevation
Range (km)
Doppler Factor
iOS Compass Heading
iOS Angle

Next 30 passes for location: Hong Kong

Rise time Rise Azimuth (degrees) Set time Set Azimuth (degrees) Duration Max altitude (degrees)

No matching passes for this satellites